[[{"header":{"parameterUnit":"m.s-1","parameterCategory":1,"la1":30.2991,"la2":30.254,"lo1":-89.0895,"lo2":-89.0444,"dy":0.0017,"dx":0.0017,"nx":28,"ny":28,"refTime":"2024-05-10T21:00:00:Z","depth":0,"parameterNumber":2,"parameterNumberName":"U-component_of_WINDS"},"data":[0,0,0,0,0,0,0,0,0,0,0,0,0,0,0,0,0,0,0,0,0,0,0,0,0,0,0,0,0,0,0,0,0,0,0,0,0,0,0,0,0,0,0,0,0,0,0,0,0,0,0,0,0,0,0,0,0,0,-0.6466,-0.6467,0,-0.6499,-0.65,-0.65,-0.6478,-0.6477,-0.6476,-0.6475,-0.6508,-0.651,-0.6512,0,0,0,0,0,0,0,0,0,0,0,0,0,-0.6382,-0.6384,-0.6466,-0.6467,-0.6467,-0.6499,-0.65,-0.65,-0.6478,-0.6477,-0.6475,-0.6474,-0.6508,-0.651,-0.6512,0,0,0,0,0,0,0,0,0,0,0,0,0,-0.6417,-0.6385,-0.6466,-0.646,-0.646,-0.6499,-0.65,-0.65,-0.6478,-0.6477,-0.6475,-0.6474,-0.6507,-0.651,-0.6512,-0.656,0,0,-0.6521,-0.6522,0,0,0,0,0,0,0,0,-0.6416,-0.6421,-0.646,-0.646,-0.646,-0.6483,-0.6482,-0.652,-0.6479,-0.6471,-0.6475,-0.6473,-0.6501,-0.6504,-0.6514,-0.6562,-0.6563,-0.6521,-0.6523,-0.6524,-0.6525,0,0,0,0,0,0,0,-0.6413,-0.6419,-0.6479,-0.6461,-0.6461,-0.6455,-0.6458,-0.649,-0.6494,-0.6472,-0.647,-0.6474,-0.6501,-0.6511,-0.6514,-0.6564,-0.6521,-0.6524,-0.6525,-0.6526,-0.6651,-0.6652,0,0,0,0,0,0,-0.6411,-0.6417,-0.6478,-0.648,-0.6434,-0.6458,-0.6461,-0.6477,-0.6494,-0.6495,-0.6476,-0.6473,-0.6507,-0.6511,-0.6516,-0.6572,-0.6524,-0.6527,-0.6528,-0.6649,-0.6651,-0.6653,0,0,0,0,0,0,-0.641,-0.6417,-0.6477,-0.6448,-0.6455,-0.6461,-0.6479,-0.6479,-0.6489,-0.6497,-0.6497,-0.6486,-0.6506,-0.6512,-0.6549,-0.6573,-0.6528,-0.653,-0.6647,-0.665,-0.6652,-0.6686,0,0,0,0,0,0,-0.6407,-0.6417,-0.6435,-0.6449,-0.6457,-0.651,-0.648,-0.648,-0.6494,-0.6491,-0.6506,-0.6507,-0.6505,-0.6545,-0.6552,-0.6576,-0.6533,-0.6645,-0.6648,-0.6651,-0.6682,-0.6689,-0.6695,0,0,0,0,0,-0.6404,-0.6443,-0.6436,-0.6444,-0.6481,-0.6512,-0.6516,-0.6513,-0.6496,-0.6514,-0.6519,-0.6507,-0.6569,-0.6549,-0.6556,-0.6582,-0.6644,-0.6647,-0.6651,-0.668,-0.6688,-0.6694,0,0,0,0,0,0,-0.6433,-0.6445,-0.6437,-0.6482,-0.6496,-0.6508,-0.6531,-0.6522,-0.6541,-0.6538,-0.6533,-0.6537,-0.6576,-0.6582,-0.656,-0.6628,-0.6603,-0.6609,-0.6623,-0.663,-0.6636,-0.6634,-0.6535,0,0,0,0,0,-0.6444,-0.6469,-0.6478,-0.6517,-0.6524,-0.6526,-0.654,-0.6536,-0.655,-0.6556,-0.6564,-0.6578,-0.66,-0.6615,-0.6637,-0.6683,-0.6685,-0.6704,-0.671,-0.6715,-0.672,-0.6744,-0.6752,-0.6665,-0.6665,-0.6665,0,0,-0.6468,-0.6478,-0.6494,-0.6523,-0.6533,-0.6558,-0.6532,-0.656,-0.6578,-0.6561,-0.6596,-0.6602,-0.6617,-0.6659,-0.6678,-0.6666,-0.6744,-0.6719,-0.6723,-0.6726,-0.6748,-0.6757,-0.6764,-0.6668,-0.6667,-0.6667,0,0,-0.6525,-0.6535,-0.6568,-0.6578,-0.6594,-0.6595,-0.6603,-0.6616,-0.6619,-0.6655,-0.6642,-0.6663,-0.6703,-0.6714,-0.6725,-0.6784,-0.6773,-0.679,-0.6823,-0.6846,-0.6853,-0.6859,-0.688,-0.6888,-0.6795,-0.6795,-0.6795,0,-0.6553,-0.6591,-0.6586,-0.6615,-0.6628,-0.6612,-0.6645,-0.6655,-0.6677,-0.6686,-0.6672,-0.672,-0.6729,-0.6773,-0.6787,-0.6796,-0.6805,-0.6789,-0.6852,-0.6858,-0.6864,-0.6884,-0.6892,-0.6797,-0.6797,-0.6797,-0.6797,0,-0.6624,-0.6651,-0.6675,-0.6697,-0.6712,-0.6743,-0.6742,-0.6758,-0.6752,-0.6754,-0.679,-0.68,-0.6823,-0.6833,-0.6828,-0.6876,-0.6867,-0.6853,-0.6828,-0.6874,-0.6893,-0.6901,-0.68,-0.68,-0.6799,-0.6798,0,0,-0.6702,-0.6719,-0.6728,-0.6737,-0.6753,-0.6773,-0.6802,-0.6824,-0.6837,-0.6852,-0.6877,-0.6909,-0.6896,-0.6908,-0.6904,-0.6924,-0.697,-0.6907,-0.6907,-0.6919,-0.7023,-0.7034,-0.7043,-0.6962,-0.6964,-0.6965,-0.7022,0,-0.676,-0.6812,-0.6807,-0.6856,-0.688,-0.6864,-0.689,-0.6902,-0.6904,-0.6924,-0.6926,-0.695,-0.693,-0.6937,-0.6957,-0.696,-0.6991,-0.6956,-0.6985,-0.6986,-0.6983,-0.7053,-0.7066,-0.7119,-0.7029,-0.703,-0.7031,0,-0.6835,-0.6852,-0.6904,-0.6914,-0.6924,-0.6947,-0.6966,-0.6986,-0.6998,-0.6998,-0.7011,-0.7003,-0.7032,-0.7006,-0.7045,-0.7021,-0.7032,-0.7036,-0.7038,-0.7041,-0.7012,-0.7059,-0.7136,-0.7144,-0.7043,-0.7042,-0.7041,0,-0.6887,-0.6923,-0.6958,-0.6966,-0.6979,-0.6996,-0.7002,-0.7013,-0.7026,-0.7042,-0.7051,-0.707,-0.7081,-0.7096,-0.7093,-0.7074,-0.7133,-0.7107,-0.7134,-0.7134,-0.7148,-0.7148,-0.7229,-0.7154,-0.7154,-0.7154,-0.7154,0,-0.6953,-0.6985,-0.6981,-0.7003,-0.7038,-0.7032,-0.7066,-0.7071,-0.708,-0.7102,-0.7089,-0.711,-0.7104,-0.7124,-0.7122,-0.7155,-0.7159,-0.716,-0.7159,-0.7162,-0.7162,-0.717,-0.7167,-0.7156,-0.7156,-0.7155,-0.7155,0,-0.7017,-0.7016,-0.7054,-0.7062,-0.7065,-0.7091,-0.7098,-0.7118,-0.7119,-0.7146,-0.7152,-0.7153,-0.7176,-0.7174,-0.72,-0.7198,-0.7239,-0.7233,-0.7235,-0.7234,-0.7262,-0.7259,-0.7352,-0.7363,-0.7281,-0.7282,-0.7282,0,-0.706,-0.7084,-0.7095,-0.7109,-0.7116,-0.7138,-0.7151,-0.7145,-0.7159,-0.7174,-0.7193,-0.7214,-0.7231,-0.7268,-0.7271,-0.7291,-0.7286,-0.7316,-0.7289,-0.729,-0.7287,-0.7286,-0.7288,-0.7323,-0.7323,-0.7324,-0.7325,0,-0.7136,-0.7134,-0.7153,-0.7172,-0.7188,-0.7202,-0.7215,-0.7227,-0.7222,-0.7238,-0.7261,-0.7275,-0.73,-0.7322,-0.734,-0.7346,-0.7335,-0.7333,-0.7341,-0.7344,-0.7344,-0.7345,-0.7251,-0.7332,-0.7331,-0.733,-0.733,-0.733,-0.7191,-0.7211,-0.7222,-0.7244,-0.7253,-0.7265,-0.7284,-0.7287,-0.7306,-0.7326,-0.7321,-0.7347,-0.7358,-0.7381,-0.7388,-0.7408,-0.7397,-0.7407,-0.741,-0.7413,-0.7417,-0.734,-0.7411,-0.7411,-0.7411,-0.741,-0.741,0,-0.7266,-0.7272,-0.7292,-0.7311,-0.7327,-0.7314,-0.7328,-0.7343,-0.7366,-0.7376,-0.7393,-0.7419,-0.7439,-0.7443,-0.7462,-0.7477,-0.7473,-0.7482,-0.7482,-0.7483,-0.7425,-0.7417,-0.7486,-0.7486,-0.7486,-0.7486,-0.7486,-0.7486,-0.7308,-0.7342,-0.734,-0.7378,-0.7383,-0.7409,-0.7417,-0.7428,-0.7437,-0.7466,-0.7483,-0.7485,-0.7493,-0.7512,-0.753,-0.753,-0.7538,-0.755,-0.7549,-0.7495,-0.7487,-0.748,-0.7473,-0.7552,-0.7552,-0.7605,-0.7605,-0.7606]},{"header":{"parameterUnit":"m.s-1","parameterCategory":1,"la1":30.2991,"la2":30.254,"lo1":-89.0895,"lo2":-89.0444,"dy":0.0017,"dx":0.0017,"nx":28,"ny":28,"refTime":"2024-05-10T21:00:00:Z","depth":0,"parameterNumber":3,"parameterNumberName":"V-component_of_WINDS"},"data":[0,0,0,0,0,0,0,0,0,0,0,0,0,0,0,0,0,0,0,0,0,0,0,0,0,0,0,0,0,0,0,0,0,0,0,0,0,0,0,0,0,0,0,0,0,0,0,0,0,0,0,0,0,0,0,0,0,0,-6.5562,-6.5563,0,-6.5602,-6.5602,-6.5603,-6.5502,-6.5499,-6.5496,-6.5493,-6.5528,-6.5531,-6.5535,0,0,0,0,0,0,0,0,0,0,0,0,0,-6.5394,-6.5398,-6.5562,-6.5563,-6.5563,-6.5602,-6.5602,-6.5603,-6.5503,-6.5499,-6.5495,-6.5491,-6.5526,-6.5531,-6.5536,0,0,0,0,0,0,0,0,0,0,0,0,0,-6.5454,-6.5399,-6.5562,-6.5518,-6.5514,-6.5602,-6.5602,-6.5603,-6.5503,-6.5499,-6.5494,-6.549,-6.5525,-6.5531,-6.5536,-6.5666,0,0,-6.5554,-6.5556,0,0,0,0,0,0,0,0,-6.545,-6.546,-6.5524,-6.5521,-6.5517,-6.5542,-6.5556,-6.5624,-6.5505,-6.5507,-6.5493,-6.5487,-6.5536,-6.5541,-6.5558,-6.5668,-6.5669,-6.5554,-6.5558,-6.556,-6.5562,0,0,0,0,0,0,0,-6.5446,-6.5458,-6.5577,-6.5525,-6.5521,-6.5494,-6.5498,-6.5568,-6.5547,-6.5507,-6.55,-6.5506,-6.5533,-6.5553,-6.5558,-6.567,-6.5554,-6.5559,-6.5563,-6.5565,-6.5888,-6.5893,0,0,0,0,0,0,-6.5449,-6.5455,-6.5576,-6.5579,-6.5472,-6.5501,-6.5505,-6.5539,-6.5546,-6.5543,-6.551,-6.5501,-6.5545,-6.5552,-6.5559,-6.5712,-6.556,-6.5566,-6.5569,-6.5883,-6.5889,-6.5895,0,0,0,0,0,0,-6.5446,-6.5461,-6.5575,-6.5515,-6.5527,-6.5509,-6.5548,-6.5542,-6.5562,-6.5549,-6.5544,-6.5534,-6.5542,-6.5551,-6.5641,-6.5712,-6.5568,-6.5574,-6.5877,-6.5885,-6.5892,-6.6019,0,0,0,0,0,0,-6.5441,-6.546,-6.5511,-6.5517,-6.5531,-6.5658,-6.5553,-6.5546,-6.5573,-6.5562,-6.557,-6.5567,-6.5539,-6.5633,-6.5647,-6.5717,-6.5578,-6.5871,-6.5881,-6.589,-6.6008,-6.603,-6.6049,0,0,0,0,0,-6.5436,-6.5543,-6.5514,-6.5529,-6.5594,-6.5662,-6.567,-6.5637,-6.5579,-6.5629,-6.562,-6.5567,-6.5702,-6.5643,-6.5657,-6.5731,-6.5866,-6.5878,-6.5889,-6.5999,-6.6026,-6.6048,0,0,0,0,0,0,-6.5543,-6.5543,-6.551,-6.5624,-6.5644,-6.5645,-6.5707,-6.5666,-6.5701,-6.5689,-6.5644,-6.5647,-6.5745,-6.5746,-6.5681,-6.5857,-6.5774,-6.5789,-6.5853,-6.5878,-6.5897,-6.5895,-6.5583,0,0,0,0,0,-6.5581,-6.5638,-6.5634,-6.5734,-6.5746,-6.5725,-6.5753,-6.5726,-6.5744,-6.5752,-6.575,-6.5768,-6.5815,-6.5846,-6.5888,-6.6008,-6.6008,-6.6066,-6.6086,-6.6102,-6.6116,-6.6179,-6.6205,-6.5933,-6.5932,-6.5932,0,0,-6.5657,-6.5664,-6.5703,-6.5756,-6.5768,-6.5827,-6.5733,-6.5798,-6.5841,-6.5761,-6.5847,-6.5846,-6.5863,-6.5969,-6.6016,-6.5973,-6.6191,-6.6117,-6.613,-6.6135,-6.6194,-6.622,-6.6243,-6.594,-6.5939,-6.5938,0,0,-6.5828,-6.5839,-6.5924,-6.594,-6.596,-6.5946,-6.5967,-6.5974,-6.5972,-6.6057,-6.5999,-6.6047,-6.6128,-6.6143,-6.6162,-6.6339,-6.6291,-6.6354,-6.6459,-6.6521,-6.6543,-6.6561,-6.6625,-6.6648,-6.6367,-6.6367,-6.6368,0,-6.592,-6.6008,-6.5973,-6.6044,-6.6068,-6.6001,-6.6086,-6.6101,-6.6134,-6.6152,-6.6105,-6.6206,-6.6213,-6.6321,-6.6365,-6.6382,-6.6403,-6.6352,-6.6543,-6.6561,-6.6578,-6.6638,-6.6662,-6.6375,-6.6374,-6.6373,-6.6373,0,-6.612,-6.6182,-6.6248,-6.6285,-6.6317,-6.6394,-6.6369,-6.6406,-6.6376,-6.6366,-6.6454,-6.646,-6.6502,-6.6526,-6.6496,-6.663,-6.6604,-6.6551,-6.6466,-6.6612,-6.6668,-6.6691,-6.6386,-6.6383,-6.6381,-6.6379,0,0,-6.6359,-6.6376,-6.6401,-6.6417,-6.6436,-6.6482,-6.6556,-6.6599,-6.6631,-6.6656,-6.6716,-6.6787,-6.6739,-6.6759,-6.6731,-6.6786,-6.6927,-6.6726,-6.6726,-6.6763,-6.7075,-6.7115,-6.7142,-6.6895,-6.6899,-6.6903,-6.7073,0,-6.6527,-6.6657,-6.6628,-6.6755,-6.6811,-6.6749,-6.6813,-6.6831,-6.6824,-6.6869,-6.6859,-6.6911,-6.6843,-6.6855,-6.6907,-6.6899,-6.6988,-6.6886,-6.695,-6.6952,-6.6948,-6.7171,-6.7213,-6.7374,-6.7095,-6.7098,-6.7101,0,-6.6741,-6.6777,-6.6911,-6.6921,-6.6944,-6.7003,-6.704,-6.7085,-6.7103,-6.7094,-6.7119,-6.708,-6.7151,-6.7067,-6.7164,-6.7096,-6.712,-6.712,-6.7125,-6.713,-6.7036,-6.7181,-6.7424,-6.7448,-6.7135,-6.7132,-6.7129,0,-6.6902,-6.6983,-6.7074,-6.7089,-6.7104,-6.7147,-6.7154,-6.7168,-6.7197,-6.7229,-6.7247,-6.7286,-6.7308,-6.7339,-6.7311,-6.7252,-6.7414,-6.7326,-6.7407,-6.7408,-6.7444,-6.7442,-6.7694,-6.746,-6.7459,-6.7459,-6.7458,0,-6.7093,-6.7177,-6.7147,-6.7203,-6.7295,-6.726,-6.7351,-6.7351,-6.7364,-6.7418,-6.7365,-6.7416,-6.7376,-6.7424,-6.7402,-6.7486,-6.7496,-6.749,-6.7483,-6.7495,-6.7496,-6.751,-6.7498,-6.7465,-6.7464,-6.7463,-6.7461,0,-6.7288,-6.7271,-6.7366,-6.7373,-6.7377,-6.7444,-6.7449,-6.75,-6.7489,-6.7558,-6.7572,-6.7555,-6.7607,-6.7583,-6.7638,-6.7623,-6.7732,-6.771,-6.7727,-6.7721,-6.7803,-6.7796,-6.8073,-6.8107,-6.7851,-6.7854,-6.7856,0,-6.7411,-6.7475,-6.7489,-6.7523,-6.7535,-6.7589,-6.7618,-6.7586,-6.7618,-6.7645,-6.7693,-6.7741,-6.7778,-6.7865,-6.7857,-6.7898,-6.7877,-6.7971,-6.7883,-6.7893,-6.7878,-6.7875,-6.7881,-6.7989,-6.7992,-6.7994,-6.7996,0,-6.7631,-6.762,-6.7666,-6.771,-6.7747,-6.7779,-6.7806,-6.7835,-6.7804,-6.7843,-6.7898,-6.7927,-6.7984,-6.8033,-6.8069,-6.8074,-6.8031,-6.8025,-6.8045,-6.8058,-6.8065,-6.8062,-6.7775,-6.8018,-6.8016,-6.8014,-6.8013,-6.8012,-6.7794,-6.7848,-6.7868,-6.792,-6.7938,-6.7965,-6.8014,-6.801,-6.8056,-6.8101,-6.8079,-6.8143,-6.8159,-6.8204,-6.8216,-6.8264,-6.8226,-6.8256,-6.8264,-6.8272,-6.8283,-6.8058,-6.827,-6.8269,-6.8269,-6.8268,-6.8268,0,-6.8012,-6.8022,-6.8071,-6.8112,-6.8153,-6.811,-6.8138,-6.8175,-6.8233,-6.8253,-6.8291,-6.8354,-6.8401,-6.8397,-6.844,-6.848,-6.8461,-6.8492,-6.8489,-6.8491,-6.8314,-6.8292,-6.8507,-6.8507,-6.8507,-6.8507,-6.8507,-6.8507,-6.813,-6.822,-6.8211,-6.8309,-6.8317,-6.8381,-6.8401,-6.8425,-6.8441,-6.8514,-6.8554,-6.8552,-6.8562,-6.8606,-6.8647,-6.8644,-6.8662,-6.8702,-6.8692,-6.8527,-6.8503,-6.848,-6.8459,-6.8706,-6.8706,-6.8864,-6.8866,-6.8867]}]]